Probability
7 7 5 4 4 4 4 4 3 1 0 0 0 0 0 1 1 2 2 1 0 0 0 0 0 0 0 0 1 2 2 2 2 1 1 0 0 0
10 9 7 6 6 6 6 5 4 3 2 0 0 0 1 2 1 1 2 2 1 0 0 0 0 0 0 0 0 1 1 1 1 2 2 1 0 0
12 11 9 8 7 7 6 5 4 4 3 1 0 1 2 3 2 1 2 2 2 1 0 0 0 0 0 0 0 0 0 0 0 1 2 1 0 0
15 13 11 10 9 8 7 5 3 3 3 1 0 1 2 3 3 3 2 2 1 1 0 0 0 0 0 0 0 0 0 0 0 0 1 1 0 0
19 17 14 12 11 10 9 6 4 5 4 2 1 1 3 3 3 3 3 1 1 0 0 0 0 0 0 0 0 0 0 0 0 0 0 0 0 0
21 20 17 13 13 13 11 9 7 6 5 4 3 3 3 3 3 4 3 2 1 1 1 1 1 1 0 0 0 0 0 0 0 0 0 0 0 0
19 19 18 15 14 14 12 10 8 6 5 5 4 4 4 4 5 5 4 4 3 3 2 2 2 2 1 1 0 0 0 0 0 0 0 0 0 0
16 16 15 14 13 12 11 9 8 6 5 5 5 5 6 7 6 6 6 6 5 4 3 3 3 3 3 2 1 0 0 0 0 0 0 0 0 0
14 13 12 12 11 10 9 9 8 6 5 5 5 4 5 6 6 6 7 7 6 4 3 3 3 3 3 3 1 0 0 0 0 0 0 0 0 0
11 11 11 12 10 8 8 8 7 5 3 3 3 3 3 4 4 5 6 7 6 4 3 3 3 3 3 3 2 0 0 0 0 0 0 0 0 0
8 8 9 9 7 5 6 6 5 4 2 1 1 1 2 1 1 3 4 5 5 5 4 3 3 3 3 2 1 0 0 0 0 0 0 0 0 0
6 7 6 4 2 2 3 4 3 2 1 0 0 0 0 0 0 1 1 2 3 4 4 3 2 2 1 1 0 0 0 0 0 0 0 0 0 0
9 8 5 2 0 1 2 2 2 1 1 0 0 0 0 0 0 0 0 0 1 1 1 1 1 1 0 0 0 0 0 0 0 0 0 0 0 0
8 7 5 2 0 0 1 1 1 0 0 0 0 0 0 0 0 0 0 0 0 0 0 0 0 0 0 0 0 0 0 0 0 0 0 0 0 0
4 3 2 1 0 0 0 0 0 0 0 0 0 0 0 0 1 1 1 0 0 0 0 0 0 0 0 0 0 0 0 0 0 0 0 0 0 0
1 1 1 0 0 0 0 0 0 0 0 0 0 0 0 0 1 2 2 1 1 0 0 0 0 0 0 0 0 0 0 0 0 0 0 0 0 0
2 2 1 1 1 0 0 0 0 0 0 0 0 0 0 0 1 1 2 2 1 0 0 0 0 1 1 0 0 1 1 0 0 0 0 0 0 0
2 2 3 2 2 1 1 0 0 0 0 0 0 0 0 0 0 0 1 1 1 0 0 0 1 2 2 1 1 1 1 0 0 0 0 0 0 0
1 2 3 3 3 3 2 1 1 0 0 0 0 1 1 0 0 0 0 0 0 0 0 1 2 3 3 2 2 1 1 0 0 0 0 0 0 0
2 3 3 3 3 3 3 3 2 1 1 0 1 2 2 1 1 0 0 0 0 1 1 1 3 3 3 2 1 0 0 0 0 0 0 0 0 0
3 3 3 3 3 3 3 3 3 3 2 1 1 2 3 3 2 1 1 0 0 1 2 2 2 2 1 1 0 0 0 0 0 0 0 0 0 0
3 3 3 3 3 3 3 3 4 4 3 2 1 2 3 3 3 3 2 1 0 1 1 1 1 1 0 0 0 0 0 0 0 0 0 0 0 0
2 3 3 3 3 3 3 4 4 4 4 3 2 2 3 3 3 3 3 2 1 0 0 0 0 0 0 0 0 0 0 0 0 0 0 0 0 0
Wind_Speed
5 5 4 3 3 3 3 4 4 3 3 3 2 2 2 2 3 3 3 5 7 7 7 7 7 7 7 6 6 7 6 6 6 7 7 8 9 9
4 4 4 3 2 2 3 3 3 4 4 3 3 2 2 2 3 3 3 5 6 7 7 7 7 6 6 6 6 6 6 6 6 7 7 7 7 8
4 4 4 3 2 2 2 2 3 3 4 3 2 2 2 2 2 2 2 3 3 6 6 7 7 7 6 6 6 6 6 6 6 7 7 7 7 7
5 4 4 3 3 3 2 3 3 3 3 4 3 2 3 3 2 3 2 2 3 5 6 7 7 7 7 7 7 7 6 6 7 6 6 6 6 6
5 5 5 4 4 3 3 3 2 2 2 3 3 2 2 2 1 2 2 2 3 3 5 5 6 6 6 7 7 7 7 7 6 6 7 7 7 7
4 4 4 4 5 4 3 3 3 2 2 2 2 2 2 2 1 2 2 2 2 2 2 3 4 5 6 6 7 7 7 7 7 7 7 7 7 7
3 4 4 5 6 5 3 3 3 2 2 2 3 2 2 1 2 2 3 2 2 2 1 2 2 2 4 6 7 8 8 8 7 7 7 7 7 7
3 2 3 3 4 4 5 5 5 4 4 3 3 4 4 4 3 3 2 2 2 2 2 2 2 3 3 4 7 8 8 7 7 8 8 7 7 6
3 3 3 2 2 2 3 3 4 5 6 5 5 5 5 4 3 3 3 3 4 3 2 3 2 3 3 4 7 7 7 7 7 7 7 7 6 6
3 3 3 3 2 3 2 2 2 3 4 4 4 5 4 4 5 5 5 3 2 2 2 2 3 3 3 3 5 6 7 7 7 6 6 7 6 6
2 3 3 3 3 2 2 2 2 3 4 3 3 4 5 4 3 2 2 2 2 3 2 2 2 2 2 3 4 6 7 7 7 7 7 7 6 6
1 2 3 3 2 2 2 2 3 4 2 3 3 3 3 3 3 4 4 3 2 3 3 2 2 1 2 2 2 2 3 5 6 7 7 7 6 4
2 2 2 2 2 2 3 3 5 3 2 2 2 2 2 1 2 2 3 3 3 3 3 3 2 2 2 2 2 2 2 2 2 4 6 8 8 6
3 2 2 3 3 3 3 4 4 2 1 1 1 1 1 2 2 2 2 2 3 4 3 2 2 2 2 2 3 2 2 2 2 2 2 4 6 8
2 2 3 3 2 2 3 2 2 1 1 1 1 2 2 2 1 1 1 1 1 2 2 2 2 2 2 3 3 2 1 2 3 3 2 3 4 4
1 1 1 2 1 2 2 1 1 1 2 2 2 1 1 1 1 0 0 0 1 2 3 2 2 2 2 3 3 3 2 2 2 3 3 3 3 3
2 1 1 1 1 1 1 1 1 0 1 1 1 0 1 0 1 1 0 0 1 2 3 2 2 1 2 2 2 3 2 2 2 3 3 3 3 4
3 1 1 1 1 1 1 1 1 1 1 1 1 1 1 1 1 1 0 1 2 2 3 2 1 1 2 3 3 3 3 3 3 3 3 3 4 4
2 1 1 1 1 1 1 1 1 1 1 1 1 1 0 0 1 1 1 1 2 2 3 2 1 1 2 3 4 3 3 3 2 2 3 4 5 5
1 2 1 1 1 1 1 1 1 0 0 1 1 1 1 1 1 1 2 2 2 3 3 2 2 3 4 4 3 4 4 4 3 4 4 3 3 3
1 1 2 2 2 2 1 1 1 1 1 1 1 2 2 1 2 2 2 3 3 2 3 4 5 5 3 1 1 3 4 5 5 4 3 3 2 2
1 1 1 1 2 2 2 2 1 1 2 2 2 2 2 2 3 3 3 3 3 3 4 4 3 1 1 2 3 4 4 3 3 4 4 5 4 5
2 2 2 2 2 2 2 2 2 2 2 2 3 3 3 3 3 3 3 3 3 3 3 3 2 1 2 3 3 3 4 3 2 2 3 5 6 7
Wind_Direction
215 212 214 224 212 209 199 187 186 235 266 258 261 261 240 227 227 222 226 224 220 218 218 222 223 221 222 223 224 225 226 228 229 229 229 230 230 230
211 209 218 223 219 209 202 201 189 194 238 248 239 249 257 264 245 239 235 231 221 214 214 218 220 218 220 223 222 223 224 227 228 227 228 228 228 224
222 213 222 217 214 217 207 202 205 190 226 259 246 246 244 253 270 263 257 244 236 219 219 222 222 218 220 222 220 221 223 227 229 228 226 225 221 219
223 214 222 216 213 223 215 219 221 210 209 244 259 247 237 230 231 245 255 249 243 226 223 224 222 222 222 224 224 225 226 229 229 225 219 215 213 217
216 213 220 212 220 225 224 231 235 234 211 219 251 252 251 239 245 266 258 263 259 245 229 228 224 224 226 228 230 229 229 231 227 222 218 212 211 213
216 216 220 211 214 217 223 229 224 218 211 220 244 252 257 254 209 238 265 261 259 256 247 237 230 230 233 233 233 231 231 231 227 222 217 213 211 210
219 218 217 210 209 211 213 219 210 210 214 220 236 250 253 238 228 221 232 250 256 226 227 242 231 237 241 241 237 237 233 230 227 222 218 216 213 213
212 220 221 225 221 223 223 220 208 211 219 224 236 239 247 239 233 223 214 221 257 234 192 248 214 237 246 242 237 234 231 229 226 222 220 219 216 215
210 215 227 233 223 227 238 248 246 239 225 219 229 237 237 229 218 228 220 215 234 220 183 252 233 246 253 254 240 232 228 226 226 221 218 216 213 212
211 208 206 223 224 217 229 262 278 275 257 234 227 238 239 229 214 218 218 226 255 243 177 226 239 247 263 257 240 226 229 229 223 217 213 213 212 211
224 206 193 207 233 206 185 237 280 287 291 280 258 255 257 249 222 190 194 201 256 259 209 196 227 255 263 262 259 239 233 232 225 217 214 212 210 207
258 241 211 209 225 209 197 213 251 267 289 315 317 307 275 257 231 200 194 202 228 248 226 193 214 206 274 260 252 252 242 236 225 226 225 218 208 200
227 248 250 232 229 239 222 223 240 249 268 274 290 304 308 286 262 237 208 196 212 241 225 182 200 205 215 261 268 235 215 217 214 227 222 219 212 201
215 227 235 232 247 260 254 252 250 246 222 252 284 289 289 283 271 256 245 238 225 233 232 192 194 206 213 249 266 255 223 212 207 216 211 211 217 215
211 231 240 249 272 275 271 256 223 189 175 200 243 257 259 263 286 312 303 286 298 292 270 230 212 219 218 233 245 236 252 240 201 197 212 215 212 202
194 285 279 272 286 275 276 263 233 199 190 207 229 257 303 350 334 290 271 310 319 309 308 279 232 208 231 248 234 242 226 220 214 211 211 230 230 213
144 82 39 17 351 336 325 307 293 232 210 216 213 260 304 311 297 315 20 304 254 273 298 316 315 287 245 234 243 245 239 245 228 205 201 231 240 225
137 141 184 218 226 241 255 286 276 234 224 205 203 212 243 257 280 313 323 239 261 275 279 284 314 349 340 303 243 234 242 244 242 210 193 218 247 241
133 161 192 221 239 233 196 192 214 234 193 168 173 197 216 247 257 271 271 273 268 274 279 277 262 225 261 289 289 250 234 251 242 236 220 215 233 236
158 176 189 189 202 212 194 192 204 223 210 190 195 220 229 244 264 272 268 259 263 271 284 285 262 237 233 242 259 280 251 231 228 235 242 236 250 258
179 185 191 186 196 204 202 197 191 198 223 224 233 244 240 235 253 262 264 273 268 270 275 275 270 266 251 219 283 287 282 249 230 223 223 223 242 250
183 195 200 203 206 206 209 213 210 212 225 237 244 247 248 242 248 257 261 265 262 263 269 279 292 290 209 230 260 274 288 302 287 266 231 212 206 213
197 200 201 204 208 206 209 214 215 227 228 230 238 245 245 246 250 252 254 254 256 264 275 285 295 272 248 244 253 263 269 284 303 309 297 283 257 246